Temp
-18 -18 -17 -18 -18 -17 -18 -17 -18 -17 -17 -17 -17 -17 -18 -18 -17 -17 -17 -19 -19 -19 -19 -18 -18 -18 -17 -17 -18 -17 -17 -18 -19 -18 -19 -19 -19 -20 -20 -20 -20 -21 -21 -21
-20 -19 -19 -19 -19 -19 -18 -19 -19 -18 -17 -19 -19 -20 -20 -20 -20 -19 -19 -20 -20 -20 -20 -19 -18 -18 -19 -19 -18 -18 -18 -18 -19 -19 -18 -19 -19 -20 -20 -21 -21 -21 -22 -22
-21 -20 -20 -20 -19 -19 -19 -20 -20 -19 -19 -20 -21 -21 -21 -21 -21 -20 -20 -20 -20 -20 -20 -20 -20 -19 -20 -21 -21 -20 -20 -20 -20 -18 -19 -19 -19 -20 -20 -21 -22 -22 -22 -22
-22 -22 -22 -20 -20 -20 -21 -21 -21 -21 -21 -22 -22 -21 -21 -23 -22 -21 -21 -20 -20 -20 -21 -21 -21 -21 -20 -21 -21 -21 -20 -20 -20 -19 -20 -20 -20 -20 -20 -20 -21 -21 -22 -22
-22 -22 -22 -21 -21 -20 -21 -21 -22 -22 -22 -22 -22 -22 -22 -22 -21 -22 -22 -22 -22 -22 -22 -22 -22 -22 -22 -21 -22 -22 -21 -21 -21 -20 -20 -20 -20 -20 -21 -20 -22 -22 -22 -22
-24 -23 -23 -23 -23 -22 -22 -22 -22 -22 -23 -22 -22 -22 -22 -22 -22 -22 -22 -22 -23 -23 -23 -23 -23 -23 -23 -23 -23 -23 -23 -23 -22 -22 -21 -21 -21 -21 -21 -21 -22 -22 -22 -22
-24 -25 -24 -23 -23 -23 -23 -23 -23 -23 -23 -23 -23 -23 -23 -23 -23 -23 -23 -23 -23 -23 -23 -23 -23 -23 -23 -23 -23 -23 -24 -24 -24 -24 -22 -21 -21 -21 -21 -22 -22 -22 -22 -23
-25 -25 -24 -24 -24 -24 -24 -24 -24 -23 -23 -23 -23 -23 -23 -23 -23 -23 -24 -24 -23 -23 -23 -23 -23 -23 -23 -23 -23 -23 -24 -24 -24 -24 -23 -22 -22 -21 -22 -22 -22 -23 -22 -23
-25 -25 -25 -24 -24 -24 -24 -24 -24 -25 -24 -24 -23 -23 -23 -23 -23 -24 -24 -24 -24 -24 -24 -23 -24 -24 -24 -23 -23 -23 -23 -24 -24 -24 -23 -22 -22 -22 -23 -23 -23 -23 -23 -24
-26 -26 -25 -25 -25 -25 -25 -25 -25 -25 -25 -25 -25 -24 -24 -24 -25 -24 -24 -24 -24 -24 -24 -24 -24 -23 -24 -24 -23 -23 -23 -23 -24 -24 -23 -23 -23 -23 -23 -23 -23 -24 -24 -23
-26 -26 -26 -25 -25 -26 -26 -25 -26 -26 -25 -25 -25 -25 -25 -25 -25 -25 -25 -24 -25 -24 -24 -24 -24 -24 -24 -24 -23 -23 -23 -23 -23 -23 -23 -23 -23 -24 -24 -24 -24 -24 -23 -24
-27 -27 -27 -27 -27 -27 -26 -26 -26 -26 -26 -26 -25 -25 -26 -25 -25 -25 -25 -25 -25 -25 -25 -25 -25 -24 -24 -24 -24 -24 -23 -23 -23 -23 -24 -24 -24 -24 -24 -24 -24 -24 -25 -25
-27 -28 -27 -28 -27 -27 -27 -27 -26 -26 -26 -26 -25 -26 -26 -26 -26 -26 -25 -25 -25 -25 -25 -25 -26 -25 -25 -25 -25 -25 -24 -25 -25 -24 -24 -24 -24 -24 -24 -24 -25 -25 -25 -25
-28 -28 -28 -28 -27 -27 -27 -27 -26 -26 -26 -26 -26 -26 -26 -26 -26 -26 -26 -26 -26 -26 -25 -25 -25 -25 -25 -26 -25 -25 -25 -25 -25 -24 -24 -24 -24 -25 -25 -26 -26 -25 -25 -25
-29 -28 -28 -28 -28 -27 -27 -27 -26 -26 -26 -26 -26 -27 -26 -26 -26 -26 -26 -26 -26 -26 -26 -26 -26 -25 -25 -25 -25 -26 -26 -26 -25 -26 -26 -25 -26 -26 -26 -26 -26 -25 -25 -26
-29 -28 -28 -28 -28 -28 -27 -27 -27 -27 -26 -27 -27 -27 -27 -26 -26 -26 -26 -26 -26 -26 -26 -26 -26 -26 -26 -25 -25 -25 -25 -26 -26 -26 -26 -26 -26 -26 -26 -26 -26 -26 -26 -26
-29 -28 -28 -29 -28 -28 -27 -28 -27 -27 -27 -27 -27 -27 -27 -27 -26 -26 -26 -27 -27 -26 -26 -26 -26 -26 -26 -26 -26 -26 -26 -26 -26 -26 -26 -26 -26 -26 -26 -26 -26 -26 -26 -26
-29 -28 -28 -28 -28 -28 -28 -28 -28 -27 -28 -28 -27 -27 -27 -27 -26 -26 -27 -27 -26 -26 -26 -27 -27 -27 -28 -28 -28 -28 -27 -27 -26 -26 -26 -26 -26 -26 -26 -26 -26 -26 -27 -27
-29 -29 -29 -28 -28 -28 -28 -28 -28 -28 -28 -27 -27 -27 -27 -27 -27 -27 -27 -27 -27 -27 -27 -28 -28 -28 -28 -29 -29 -29 -29 -28 -28 -27 -27 -27 -26 -26 -27 -27 -27 -27 -27 -27
-29 -29 -29 -28 -28 -28 -28 -28 -28 -28 -28 -28 -28 -27 -27 -28 -28 -27 -27 -28 -27 -28 -28 -28 -28 -28 -29 -29 -29 -29 -29 -29 -29 -28 -28 -27 -28 -27 -28 -28 -28 -27 -27 -28
-28 -28 -28 -29 -28 -28 -28 -28 -28 -28 -28 -27 -28 -28 -28 -28 -28 -28 -28 -28 -28 -28 -28 -28 -28 -28 -29 -29 -30 -30 -30 -30 -29 -28 -28 -28 -28 -28 -28 -28 -28 -28 -28 -28
-28 -28 -28 -28 -28 -28 -28 -28 -28 -28 -28 -28 -28 -28 -28 -28 -28 -28 -28 -28 -28 -28 -28 -28 -28 -28 -28 -29 -30 -30 -31 -31 -30 -28 -28 -28 -28 -28 -28 -28 -29 -28 -29 -29
-29 -29 -28 -28 -28 -28 -28 -28 -28 -28 -28 -28 -28 -28 -28 -28 -28 -28 -28 -28 -28 -28 -28 -28 -28 -28 -28 -29 -29 -30 -30 -30 -30 -29 -29 -28 -28 -28 -28 -28 -28 -29 -28 -29
-29 -29 -29 -29 -29 -29 -29 -28 -29 -29 -29 -29 -29 -29 -29 -28 -29 -29 -29 -28 -28 -28 -28 -28 -28 -28 -28 -29 -29 -29 -29 -29 -29 -30 -29 -29 -29 -28 -29 -29 -28 -28 -28 -29
-29 -29 -29 -29 -28 -28 -29 -29 -29 -29 -29 -29 -29 -29 -29 -29 -29 -29 -28 -28 -28 -28 -28 -28 -28 -28 -28 -29 -29 -29 -29 -29 -29 -29 -29 -29 -29 -29 -29 -28 -28 -29 -29 -29
-29 -29 -29 -29 -29 -29 -29 -29 -29 -30 -30 -30 -30 -30 -29 -29 -29 -29 -28 -29 -29 -28 -28 -28 -28 -28 -28 -28 -28 -28 -29 -29 -29 -29 -29 -29 -29 -29 -29 -29 -29 -29 -29 -29
-30 -30 -29 -29 -29 -29 -30 -30 -31 -31 -32 -32 -32 -31 -30 -30 -29 -29 -29 -29 -29 -29 -29 -29 -28 -28 -28 -28 -28 -28 -28 -28 -29 -29 -29 -29 -29 -29 -29 -29 -29 -29 -29 -29
Height
5505 5508 5511 5516 5523 5525 5528 5531 5529 5531 5531 5535 5531 5532 5536 5536 5540 5543 5545 5543 5542 5545 5551 5551 5550 5553 5555 5560 5563 5565 5564 5563 5564 5564 5565 5564 5562 5564 5567 5570 5571 5572 5572 5572
5486 5492 5496 5501 5510 5509 5512 5514 5515 5516 5522 5518 5518 5520 5524 5525 5527 5528 5530 5529 5532 5533 5536 5542 5540 5539 5540 5543 5546 5549 5551 5552 5553 5552 5555 5552 5553 5553 5557 5557 5560 5560 5560 5562
5471 5480 5480 5478 5494 5495 5498 5499 5504 5502 5512 5502 5504 5507 5510 5512 5513 5513 5516 5516 5515 5517 5519 5520 5521 5523 5524 5523 5526 5529 5530 5536 5540 5541 5540 5539 5543 5543 5547 5547 5548 5548 5548 5552
5461 5465 5460 5468 5480 5483 5483 5486 5488 5491 5493 5491 5496 5497 5496 5499 5500 5499 5503 5503 5503 5503 5503 5502 5502 5503 5505 5506 5507 5508 5512 5518 5522 5525 5528 5528 5531 5533 5535 5535 5535 5537 5538 5541
5449 5451 5454 5455 5464 5471 5471 5474 5475 5478 5482 5484 5487 5487 5487 5486 5488 5488 5488 5487 5488 5487 5486 5486 5486 5486 5487 5487 5490 5491 5491 5497 5501 5505 5509 5512 5516 5519 5521 5522 5523 5527 5529 5528
5439 5439 5441 5448 5450 5455 5459 5463 5462 5467 5469 5474 5476 5476 5473 5474 5474 5475 5475 5477 5477 5478 5475 5474 5473 5473 5474 5474 5473 5474 5472 5476 5480 5485 5492 5498 5502 5505 5510 5508 5510 5514 5518 5516
5427 5430 5432 5436 5441 5444 5448 5456 5454 5457 5460 5462 5466 5469 5468 5468 5466 5468 5466 5469 5467 5468 5465 5462 5462 5461 5461 5462 5462 5460 5460 5461 5465 5469 5476 5480 5485 5489 5493 5494 5497 5502 5504 5506
5420 5424 5427 5426 5430 5436 5438 5440 5446 5449 5450 5453 5455 5459 5458 5459 5458 5460 5460 5459 5457 5456 5454 5451 5449 5448 5448 5449 5448 5448 5448 5449 5451 5454 5462 5463 5471 5475 5478 5481 5483 5488 5493 5496
5415 5417 5418 5420 5423 5426 5426 5431 5435 5439 5441 5444 5447 5451 5452 5451 5451 5452 5450 5449 5448 5446 5443 5442 5439 5436 5435 5433 5434 5433 5433 5436 5440 5443 5447 5449 5457 5462 5466 5471 5475 5480 5485 5488
5408 5412 5414 5413 5416 5417 5420 5423 5427 5433 5435 5436 5440 5443 5442 5445 5445 5446 5445 5444 5442 5439 5437 5434 5431 5427 5425 5421 5420 5420 5422 5424 5427 5432 5437 5439 5444 5452 5458 5463 5467 5472 5478 5481
5399 5401 5405 5408 5408 5410 5414 5416 5420 5424 5428 5429 5433 5436 5436 5438 5439 5440 5441 5439 5437 5433 5431 5428 5427 5423 5419 5413 5411 5413 5415 5415 5420 5425 5428 5432 5437 5445 5451 5455 5461 5465 5468 5473
5392 5393 5397 5401 5402 5404 5409 5410 5415 5418 5422 5424 5427 5427 5430 5432 5434 5435 5435 5435 5433 5430 5427 5425 5424 5422 5420 5417 5413 5412 5411 5412 5416 5418 5423 5427 5433 5440 5445 5451 5456 5458 5462 5466
5380 5384 5389 5392 5395 5397 5403 5407 5410 5413 5415 5416 5419 5423 5426 5428 5429 5430 5431 5430 5430 5428 5427 5425 5423 5421 5420 5418 5417 5417 5417 5418 5419 5421 5424 5427 5432 5436 5441 5445 5448 5452 5455 5459
5366 5372 5381 5385 5388 5393 5397 5401 5404 5407 5409 5411 5414 5418 5421 5423 5424 5425 5425 5425 5425 5424 5423 5421 5421 5421 5420 5417 5417 5417 5417 5418 5419 5421 5423 5425 5428 5432 5435 5439 5443 5446 5449 5452
5356 5363 5371 5375 5382 5386 5391 5395 5398 5401 5403 5404 5405 5410 5415 5417 5419 5420 5420 5420 5419 5419 5419 5418 5416 5416 5416 5416 5415 5414 5414 5415 5416 5417 5419 5421 5425 5428 5431 5434 5437 5440 5443 5445
5341 5353 5363 5370 5375 5381 5387 5390 5392 5394 5398 5399 5403 5406 5409 5412 5413 5414 5415 5415 5415 5413 5411 5409 5410 5410 5408 5407 5408 5409 5409 5411 5411 5413 5416 5418 5420 5422 5425 5428 5430 5433 5435 5436
5339 5347 5354 5361 5368 5375 5381 5383 5387 5391 5392 5395 5399 5401 5403 5406 5407 5408 5409 5409 5407 5406 5405 5403 5400 5396 5395 5395 5393 5396 5398 5400 5403 5405 5407 5410 5412 5414 5417 5419 5421 5424 5426 5427
5338 5344 5350 5357 5364 5369 5374 5379 5382 5384 5386 5390 5393 5395 5397 5400 5401 5402 5402 5401 5399 5397 5395 5392 5388 5385 5382 5381 5382 5382 5383 5386 5390 5393 5396 5399 5402 5405 5408 5410 5412 5414 5416 5416
5337 5342 5346 5354 5360 5365 5370 5374 5377 5379 5382 5384 5387 5389 5391 5393 5394 5395 5394 5392 5391 5387 5383 5380 5376 5374 5373 5372 5371 5372 5370 5371 5375 5380 5384 5388 5391 5395 5398 5400 5402 5404 5405 5406
5335 5339 5344 5352 5358 5363 5367 5369 5372 5374 5376 5379 5381 5383 5385 5386 5386 5386 5387 5386 5383 5378 5373 5368 5365 5363 5361 5359 5357 5356 5356 5357 5361 5368 5372 5376 5380 5383 5386 5389 5391 5393 5395 5396
5336 5341 5345 5351 5356 5361 5364 5366 5367 5370 5372 5373 5375 5377 5376 5377 5378 5379 5379 5377 5372 5369 5365 5358 5355 5352 5350 5347 5344 5343 5342 5343 5348 5355 5363 5367 5370 5373 5377 5379 5381 5383 5385 5386
5341 5346 5350 5352 5354 5358 5361 5363 5364 5366 5367 5368 5369 5370 5370 5370 5371 5371 5370 5369 5364 5360 5355 5350 5346 5344 5342 5339 5337 5334 5333 5332 5338 5345 5352 5355 5359 5364 5368 5371 5372 5374 5375 5375
5346 5347 5350 5351 5353 5355 5357 5358 5359 5359 5360 5361 5361 5362 5362 5362 5362 5361 5359 5359 5355 5350 5345 5341 5339 5337 5336 5333 5331 5330 5329 5330 5334 5336 5343 5347 5352 5355 5357 5360 5362 5363 5364 5365
5346 5346 5346 5347 5348 5350 5351 5351 5351 5351 5351 5352 5352 5352 5352 5351 5351 5351 5349 5347 5345 5342 5338 5334 5333 5332 5331 5329 5327 5326 5326 5328 5331 5334 5337 5340 5343 5346 5348 5351 5352 5354 5354 5354
5345 5345 5344 5344 5344 5344 5344 5343 5342 5341 5339 5339 5339 5340 5340 5341 5341 5341 5340 5338 5336 5333 5330 5328 5327 5326 5326 5325 5324 5323 5324 5325 5327 5329 5332 5334 5335 5337 5340 5342 5343 5343 5344 5344
5338 5337 5337 5336 5336 5336 5335 5333 5330 5327 5325 5324 5325 5326 5328 5330 5331 5331 5331 5330 5328 5326 5323 5322 5320 5319 5319 5320 5320 5320 5321 5321 5322 5323 5325 5327 5328 5330 5331 5331 5332 5332 5333 5334
5330 5331 5330 5330 5329 5328 5326 5323 5318 5312 5310 5311 5313 5315 5317 5319 5321 5322 5323 5323 5322 5320 5318 5316 5314 5313 5312 5313 5313 5314 5314 5315 5316 5317 5319 5320 5321 5322 5322 5322 5322 5323 5323 5322
Wind_Speed
64 72 75 70 65 60 58 63 56 56 57 61 56 52 48 46 48 49 58 43 44 48 47 44 36 43 50 57 59 46 52 50 42 48 45 37 43 41 38 34 33 37 37 34
60 59 67 67 61 53 58 46 55 61 57 54 54 46 47 45 49 53 57 57 53 51 50 53 49 53 56 51 50 51 53 55 48 56 45 45 38 50 43 36 36 38 36 35
59 64 63 60 63 61 53 52 57 60 56 60 57 48 44 46 46 54 55 54 57 58 57 57 59 60 55 51 49 51 50 53 55 57 53 65 54 41 46 40 38 40 31 34
48 50 59 62 62 66 62 57 57 57 54 55 54 54 50 45 49 50 54 56 59 60 56 53 52 54 58 57 50 51 54 53 57 56 64 61 64 52 47 50 35 36 36 41
39 51 53 54 54 56 61 56 57 56 52 55 53 48 45 47 48 44 36 36 37 37 36 38 40 41 43 45 48 51 52 51 55 59 65 65 59 41 47 41 34 39 36 46
49 43 38 36 35 43 50 49 45 44 39 35 37 36 36 36 36 34 33 28 26 29 31 33 34 34 33 36 42 47 48 51 56 58 49 49 48 39 46 51 39 33 47 50
36 29 35 35 35 39 37 40 38 34 34 34 31 28 28 31 37 31 29 27 28 30 31 34 35 38 43 40 36 37 40 45 54 52 49 41 44 46 41 38 38 43 51 42
34 30 33 24 22 29 39 34 38 41 35 33 35 31 30 35 33 29 26 26 29 30 30 31 35 36 36 37 42 42 43 42 37 36 55 42 44 47 40 46 41 40 39 41
16 22 21 27 34 26 28 31 32 34 31 31 27 32 34 36 29 23 23 25 29 32 36 36 35 34 37 36 36 44 46 41 39 38 44 39 32 40 42 45 40 43 43 38
29 25 21 21 20 26 32 30 28 31 26 20 23 25 17 30 28 26 25 28 31 32 31 28 27 31 33 30 33 40 38 35 38 40 40 39 38 42 36 42 43 41 35 33
32 33 32 36 25 14 15 22 22 17 19 22 26 24 20 23 23 20 20 23 24 27 24 24 19 13 11 10 19 26 29 27 25 33 39 34 31 30 36 40 38 37 31 22
34 34 32 32 30 24 24 20 18 16 21 22 21 17 23 23 20 14 14 13 12 13 13 7 6 8 6 2 7 10 16 16 18 24 29 29 35 39 35 33 34 26 22 23
39 33 32 28 23 19 18 19 20 21 26 19 23 26 21 21 17 14 14 14 13 14 15 17 18 9 9 4 6 9 10 13 18 21 27 27 28 29 31 32 24 22 23 25
41 39 31 27 31 21 20 22 18 19 23 28 26 25 22 22 18 15 16 16 16 15 16 16 16 17 20 21 15 12 16 18 19 24 27 29 30 30 25 19 21 23 22 22
42 40 35 33 27 26 23 17 17 21 23 27 26 23 26 21 17 16 18 21 20 21 18 16 20 27 24 23 23 22 17 14 21 22 21 21 21 22 23 23 23 22 22 22
44 39 35 33 27 24 20 19 16 14 19 14 21 26 22 21 20 20 23 20 21 22 26 30 33 31 33 34 31 27 25 21 21 24 26 25 24 23 25 28 31 30 29 27
33 29 35 35 29 27 28 19 20 14 19 23 26 27 24 24 23 24 26 27 22 26 30 34 36 41 37 36 38 35 34 32 30 25 31 31 29 28 27 29 30 32 33 31
21 20 26 34 32 34 23 19 17 20 20 24 25 26 24 25 27 30 28 24 25 30 32 31 32 34 35 29 30 36 39 40 39 36 32 33 34 37 36 33 34 34 33 31
13 14 19 28 30 25 22 22 24 21 23 23 23 23 24 28 29 24 24 28 30 33 32 30 27 25 27 29 33 29 32 40 41 42 37 36 33 32 33 34 36 33 33 33
9 13 18 22 25 22 20 21 23 25 24 24 25 26 28 28 27 26 28 29 31 35 33 31 28 28 30 33 31 30 31 35 38 37 35 32 32 32 31 33 33 33 32 32
13 12 14 18 23 17 19 18 16 17 23 26 28 29 28 28 29 27 28 32 31 36 33 31 28 27 31 27 26 26 25 31 45 41 38 36 32 29 30 29 32 32 33 32
19 11 11 11 18 25 22 20 20 23 24 28 29 30 31 30 31 31 33 34 36 37 34 31 25 26 28 26 23 22 21 23 45 42 29 28 38 38 39 34 37 40 35 33
8 9 9 12 13 17 20 21 24 25 26 31 29 28 30 34 37 36 36 37 38 37 33 27 22 25 27 23 20 18 16 18 27 42 32 31 24 32 31 34 37 39 40 41
11 11 12 14 16 21 26 28 28 28 30 32 34 34 34 36 37 35 35 37 37 36 30 24 22 23 23 20 17 17 16 18 21 25 25 27 27 30 30 35 38 40 41 41
14 17 20 24 28 30 32 34 37 40 40 39 38 38 37 36 36 35 35 37 36 32 27 24 23 23 22 18 16 15 16 18 23 27 32 31 28 28 32 36 40 41 38 38
23 22 21 22 24 27 30 34 38 42 44 44 44 43 42 41 40 37 36 32 27 26 25 23 23 24 24 24 22 19 18 21 22 24 27 29 31 34 34 33 33 35 37 38
19 17 16 16 16 17 19 20 21 22 22 21 22 26 30 30 28 24 21 21 22 22 22 21 19 20 23 24 24 24 24 24 26 28 29 30 33 34 35 37 37 37 40 42
Wind_Direction
236 237 245 255 253 255 254 248 256 259 251 253 249 255 258 264 245 249 259 275 285 285 286 278 264 258 261 273 283 265 250 259 271 255 270 262 259 253 264 264 268 265 272 274
249 241 246 251 249 250 250 251 254 251 253 266 276 282 279 275 273 274 275 279 281 276 272 265 259 260 269 263 252 255 253 261 272 271 255 239 255 253 256 257 264 264 269 272
254 251 252 247 238 245 241 253 253 264 259 275 284 287 281 283 285 282 286 282 277 272 266 265 268 271 260 277 274 268 264 263 266 262 246 247 252 257 256 258 258 263 270 267
253 250 253 256 250 254 262 269 270 273 276 281 280 279 288 289 285 285 281 272 275 275 279 286 286 283 281 284 279 277 277 274 268 266 265 270 271 271 260 261 256 257 266 272
239 242 249 254 258 259 264 265 265 271 273 274 279 281 289 288 288 287 288 289 287 279 278 278 275 273 272 272 269 265 262 257 252 252 256 260 263 253 256 255 253 250 262 268
260 260 257 250 259 257 258 261 263 265 269 273 282 290 287 290 289 290 287 283 279 274 268 268 267 260 260 265 262 258 252 249 247 246 244 248 238 248 241 248 252 249 257 255
257 265 272 273 264 262 253 256 263 267 268 271 271 273 279 289 292 291 289 281 278 274 273 270 270 261 260 261 260 256 255 252 249 240 229 254 244 233 250 250 244 249 247 249
257 258 250 255 247 254 247 252 264 260 261 266 275 276 279 287 285 283 278 276 274 274 274 277 284 276 268 267 257 256 255 256 254 245 236 238 236 234 249 249 243 225 241 246
238 237 253 258 257 258 242 244 242 243 247 254 257 264 270 283 283 273 272 279 282 285 286 287 285 281 277 265 261 258 260 251 249 238 229 235 231 234 227 248 240 235 235 243
228 233 220 189 219 242 254 256 249 242 235 240 254 261 281 276 260 260 271 278 280 289 298 292 294 285 276 275 262 255 261 256 239 233 236 233 244 237 233 231 222 226 237 240
236 232 212 214 231 252 233 221 215 227 246 255 259 264 271 256 252 256 267 276 286 294 300 286 291 307 336 317 268 258 257 254 240 232 237 250 220 222 214 215 222 229 228 234
239 250 254 256 266 271 259 252 271 273 266 270 267 256 241 245 244 252 272 284 321 324 322 293 295 282 312 306 146 207 220 229 217 209 208 191 197 207 217 226 230 223 228 238
244 244 244 245 257 250 257 253 254 260 264 267 255 237 239 238 236 249 263 276 300 311 332 350 341 309 297 319 250 206 197 198 194 192 201 203 207 214 223 220 217 224 233 243
234 236 236 240 244 237 233 231 250 267 261 264 221 226 230 223 228 247 267 281 295 305 311 322 324 319 322 321 292 273 273 271 249 235 225 220 218 218 217 213 221 232 243 248
226 223 224 228 233 238 242 233 242 259 254 223 203 204 214 223 236 253 274 283 289 294 302 301 308 309 304 304 299 293 281 271 246 217 217 218 220 220 219 223 230 241 254 260
221 222 222 222 221 221 212 209 213 220 224 220 215 209 214 231 243 261 274 282 286 299 305 307 303 293 291 290 283 272 260 266 252 238 228 235 235 232 232 237 244 250 258 264
215 207 214 215 199 201 202 212 223 236 218 219 214 213 221 237 251 264 275 283 289 300 303 302 293 290 282 270 267 254 248 243 246 249 238 237 233 242 246 250 249 252 256 263
203 212 215 211 200 204 204 217 228 232 222 218 217 224 231 244 255 266 275 285 294 298 306 300 290 281 278 278 263 259 249 241 234 234 240 249 250 248 249 247 251 255 259 266
215 222 205 203 205 209 217 222 234 234 217 217 220 226 235 245 257 263 280 290 293 306 303 301 289 281 282 282 286 273 266 250 237 235 229 231 237 243 245 249 254 257 261 267
185 195 189 197 202 209 216 224 233 236 223 222 230 235 242 251 254 264 274 292 298 309 304 304 293 288 291 292 284 279 268 249 233 222 226 232 241 245 244 248 251 254 259 261
175 171 172 189 192 206 223 237 241 240 232 233 240 248 251 255 259 269 281 291 304 309 305 304 293 296 301 295 289 293 269 250 221 214 217 231 238 243 245 251 252 255 259 259
147 140 197 212 216 214 235 253 250 251 255 251 252 258 256 258 266 275 279 289 301 307 310 303 291 299 303 300 290 293 281 248 220 215 211 218 221 234 243 231 243 255 256 255
210 228 212 192 194 230 244 249 254 262 270 265 261 269 272 267 266 272 280 289 300 309 311 301 289 297 302 294 287 282 273 231 237 235 239 224 227 219 226 239 249 260 262 259
284 278 264 265 266 275 278 277 274 272 270 269 268 272 273 273 273 275 282 293 301 307 308 297 283 288 290 293 288 276 267 249 243 244 255 260 256 246 246 250 258 263 268 267
283 279 266 260 261 266 267 266 265 266 266 267 266 267 269 271 274 278 286 294 302 302 304 295 280 275 278 284 291 276 261 255 251 250 247 251 251 256 257 257 260 265 266 265
281 286 276 272 269 269 271 273 274 272 271 270 270 270 270 271 275 281 286 292 294 302 301 290 282 270 266 267 272 271 260 252 248 244 245 253 255 257 261 263 264 265 261 261
267 266 269 278 276 280 294 303 308 293 277 269 269 269 269 268 268 270 276 283 296 300 294 288 284 277 267 264 264 262 260 258 253 249 247 249 252 257 261 261 261 266 264 265